GW5747 Weather Reports


time (UTC)temp
C
wind
direction
speed
KPH
gust
KPH
rain 1hr
cm
rain 24hr
cm
rain mn
cm
humidity
%
barometer
mb
20260505140622 23 139 0.0 0.0 0.00 0.00 0.00 48 1001.8
20260505140119 23 163 1.6 1.6 0.00 0.00 0.00 47 1001.6
20260505125036 20 144 1.6 3.2 0.00 0.00 0.00 56 1002.3
20260505124532 20 145 0.0 0.0 0.00 0.00 0.00 56 1002.3
20260505124028 18 133 0.0 0.0 0.00 0.00 0.00 58 1002.2
20260505123525 18 145 0.0 1.6 0.00 0.00 0.00 59 1002.2
20260505123021 18 140 0.0 0.0 0.00 0.00 0.00 62 1002.3
20260505122518 17 121 0.0 0.0 0.00 0.00 0.00 62 1002.1
20260505122015 17 154 0.0 0.0 0.00 0.00 0.00 63 1002.2
20260505121512 17 146 0.0 0.0 0.00 0.00 0.00 63 1001.9
20260505121009 17 151 0.0 0.0 0.00 0.00 0.00 62 1001.8
20260505120505 16 140 1.6 1.6 0.00 0.00 0.00 63 1002.0
20260505120005 16 155 0.0 1.6 0.00 0.00 0.00 65 1001.8
20260505115500 16 139 0.0 0.0 0.00 0.00 0.00 67 1001.9
20260505114958 16 152 0.0 0.0 0.00 0.00 0.00 65 1001.8
20260505114454 16 139 0.0 0.0 0.00 0.00 0.00 71 1001.7
20260505113951 16 145 0.0 0.0 0.00 0.00 0.00 68 1001.9
20260505113447 16 165 0.0 1.6 0.00 0.00 0.00 67 1001.7
20260505112943 15 147 0.0 0.0 0.00 0.00 0.00 68 1001.8
20260505112441 15 139 0.0 0.0 0.00 0.00 0.00 72 1001.7
20260505111937 15 141 0.0 0.0 0.00 0.00 0.00 73 1001.6
20260505111432 15 143 0.0 0.0 0.00 0.00 0.00 73 1001.6
20260505110929 15 138 0.0 0.0 0.00 0.00 0.00 73 1001.3
20260505110425 15 146 0.0 0.0 0.00 0.00 0.00 70 1001.2
20260505101856 11 140 0.0 0.0 0.00 0.00 0.00 86 1001.0
20260505101351 11 148 0.0 0.0 0.00 0.00 0.00 87 1001.0
20260505100847 11 141 0.0 0.0 0.00 0.00 0.00 87 1000.9
20260505100344 11 141 0.0 0.0 0.00 0.00 0.00 87 1001.1
20260505095839 11 129 0.0 0.0 0.00 0.00 0.00 87 1000.9
20260505095337 11 135 0.0 0.0 0.00 0.00 0.00 87 1000.8
20260505094833 11 141 0.0 0.0 0.00 0.00 0.00 87 1001.0
20260505094330 11 139 0.0 0.0 0.00 0.00 0.00 87 1000.9
20260505093825 11 137 0.0 0.0 0.00 0.00 0.00 86 1000.8
20260505093324 11 138 0.0 0.0 0.00 0.00 0.00 86 1000.7
20260505092820 11 140 0.0 0.0 0.00 0.00 0.00 86 1000.6
20260505092319 11 139 0.0 0.0 0.00 0.00 0.00 86 1000.8
20260505091815 11 143 0.0 0.0 0.00 0.00 0.00 86 1000.7
20260505091314 11 141 0.0 0.0 0.00 0.00 0.00 86 1000.5
20260505090811 11 143 0.0 0.0 0.00 0.00 0.00 87 1000.5
20260505090309 11 149 0.0 0.0 0.00 0.00 0.00 87 1000.5
20260505085806 11 141 0.0 0.0 0.00 0.00 0.00 87 1000.5
20260505085305 11 134 0.0 0.0 0.00 0.00 0.00 87 1000.8
20260505084801 11 144 0.0 0.0 0.00 0.00 0.00 87 1000.7
20260505084300 11 136 0.0 0.0 0.00 0.00 0.00 88 1000.9
20260505083757 11 148 0.0 0.0 0.00 0.00 0.00 88 1000.6
20260505083253 11 147 0.0 0.0 0.00 0.00 0.00 88 1000.7
20260505082750 11 141 0.0 0.0 0.00 0.00 0.00 88 1000.7
20260505082247 11 141 0.0 0.0 0.00 0.00 0.00 88 1000.8
20260505081743 11 139 0.0 0.0 0.00 0.00 0.00 88 1000.8
20260505081240 11 140 0.0 0.0 0.00 0.00 0.00 88 1000.7
20260505080737 11 140 0.0 0.0 0.00 0.00 0.00 88 1000.6
20260505080232 11 137 0.0 0.0 0.00 0.00 0.00 88 1000.7
20260505075728 11 137 0.0 0.0 0.00 0.00 0.00 88 1000.7
20260505075226 11 139 0.0 0.0 0.00 0.00 0.00 88 1000.6
20260505074723 11 142 0.0 0.0 0.00 0.00 0.00 88 1000.6
20260505074220 11 141 0.0 0.0 0.00 0.00 0.00 88 1000.7
20260505073718 11 141 0.0 0.0 0.00 0.00 0.00 88 1000.8
20260505073215 11 141 0.0 0.0 0.00 0.00 0.00 88 1000.6
20260505072711 11 141 0.0 0.0 0.00 0.00 0.00 88 1000.5
20260505072208 11 144 0.0 0.0 0.00 0.00 0.00 87 1000.3
20260505071703 11 141 0.0 0.0 0.00 0.00 0.00 87 1000.5
20260505071201 11 137 0.0 0.0 0.00 0.00 0.00 87 1000.4
20260505070658 11 141 0.0 0.0 0.00 0.00 0.00 87 1000.4
20260505070154 11 142 0.0 0.0 0.00 0.00 0.00 87 1000.5
20260505065650 11 146 0.0 0.0 0.00 0.00 0.00 86 1000.4
20260505065147 11 143 0.0 0.0 0.00 0.00 0.00 86 1000.3
20260505064644 11 143 0.0 0.0 0.00 0.00 0.00 85 1000.3
20260505064142 11 143 0.0 0.0 0.00 0.00 0.00 85 1000.4
20260505063640 11 143 0.0 0.0 0.00 0.00 0.00 85 1000.4
20260505063136 12 143 0.0 0.0 0.00 0.00 0.00 85 1000.2
20260505062632 12 143 0.0 0.0 0.00 0.00 0.00 84 1000.1
20260505062129 12 143 0.0 0.0 0.00 0.00 0.00 84 1000.3
20260505061626 12 145 0.0 0.0 0.00 0.00 0.00 84 1000.4
20260505061125 12 144 0.0 0.0 0.00 0.00 0.00 84 1000.4
20260505060622 12 144 0.0 0.0 0.00 0.00 0.00 83 1000.3
20260505060119 12 144 0.0 0.0 0.00 0.00 0.00 83 1000.2
20260505055614 12 145 0.0 0.0 0.00 0.00 0.00 82 1000.5
20260505055110 12 140 0.0 0.0 0.00 0.00 0.00 82 1000.4
20260505054608 12 144 0.0 0.0 0.00 0.00 0.00 82 1000.5
20260505054106 12 144 0.0 0.0 0.00 0.00 0.00 82 1000.5
20260505053603 12 144 0.0 0.0 0.00 0.00 0.00 81 1000.5
20260505053059 13 144 0.0 0.0 0.00 0.00 0.00 80 1000.3
20260505052556 13 143 0.0 0.0 0.00 0.00 0.00 80 1000.4
20260505052054 13 143 0.0 0.0 0.00 0.00 0.00 79 1000.6
20260505051550 13 143 0.0 0.0 0.00 0.00 0.00 79 1000.5
20260505051049 13 144 0.0 0.0 0.00 0.00 0.00 79 1000.6
20260505050546 13 146 0.0 0.0 0.00 0.00 0.00 79 1000.6
20260505041514 13 146 0.0 0.0 0.00 0.00 0.00 77 1000.5
20260505041012 13 144 0.0 0.0 0.00 0.00 0.00 76 1000.5
20260505040509 13 144 0.0 0.0 0.00 0.00 0.00 76 1000.4
20260505040006 13 141 0.0 0.0 0.00 0.00 0.00 76 1000.2
20260505035501 13 144 0.0 0.0 0.00 0.00 0.00 76 1000.4
20260505034959 14 144 0.0 0.0 0.00 0.00 0.00 75 1000.4
20260505034455 14 144 0.0 0.0 0.00 0.00 0.00 75 1000.4
20260505033952 14 144 0.0 0.0 0.00 0.00 0.00 74 1000.4
20260505033449 14 144 0.0 0.0 0.00 0.00 0.00 73 1000.4
20260505032947 14 143 0.0 0.0 0.00 0.00 0.00 72 1000.5
20260505032444 15 144 0.0 0.0 0.00 0.00 0.00 72 1000.1
20260505031940 15 145 0.0 0.0 0.00 0.00 0.00 71 1000.4
20260505031438 15 145 0.0 0.0 0.00 0.00 0.00 71 1000.4
20260505030935 15 145 0.0 0.0 0.00 0.00 0.00 70 1000.4
20260505030430 15 145 0.0 0.0 0.00 0.00 0.00 70 1000.4
20260505025926 15 145 0.0 0.0 0.00 0.00 0.00 70 1000.2
20260505025423 15 143 0.0 0.0 0.00 0.00 0.00 70 1000.3
20260505024922 15 143 0.0 0.0 0.00 0.00 0.00 69 1000.4
20260505024419 15 144 0.0 0.0 0.00 0.00 0.00 69 1000.2
20260505023916 15 144 0.0 0.0 0.00 0.00 0.00 69 1000.3
20260505023413 15 143 0.0 0.0 0.00 0.00 0.00 68 1000.2
20260505022910 15 147 0.0 0.0 0.00 0.00 0.00 68 1000.5
20260505022408 15 143 0.0 0.0 0.00 0.00 0.00 67 1000.4
20260505021905 16 144 0.0 0.0 0.00 0.00 0.00 66 1000.2
20260505021401 16 144 0.0 0.0 0.00 0.00 0.00 65 1000.6
20260505020857 16 144 0.0 0.0 0.00 0.00 0.00 65 1000.3
20260505020353 16 144 0.0 0.0 0.00 0.00 0.00 64 1000.0
20260505015850 16 144 0.0 0.0 0.00 0.00 0.00 63 1000.1
20260505015347 16 144 0.0 0.0 0.00 0.00 0.00 62 1000.0
20260505014844 17 145 0.0 0.0 0.00 0.00 0.00 62 1000.0
20260505014341 17 144 0.0 0.0 0.00 0.00 0.00 61 1000.0
20260505013838 17 144 0.0 0.0 0.00 0.00 0.00 60 999.9
20260505013335 17 144 0.0 0.0 0.00 0.00 0.00 59 999.9
20260505012833 18 144 0.0 0.0 0.00 0.00 0.00 59 999.8
20260505012331 18 146 0.0 0.0 0.00 0.00 0.00 57 1000.0
20260505011826 18 147 0.0 0.0 0.00 0.00 0.00 57 999.6
20260505011323 18 146 0.0 0.0 0.00 0.00 0.00 56 999.5
20260505010819 18 146 0.0 0.0 0.00 0.00 0.00 57 999.6
20260505010315 18 145 0.0 0.0 0.00 0.00 0.00 56 999.4
20260505005812 18 150 0.0 0.0 0.00 0.00 0.00 55 999.6
20260505005309 19 146 0.0 0.0 0.00 0.00 0.00 53 999.3
20260505004806 20 146 0.0 0.0 0.00 0.00 0.00 53 999.4
20260505004302 20 146 0.0 0.0 0.00 0.00 0.00 51 999.5
20260505003800 20 146 0.0 0.0 0.00 0.00 0.00 50 999.3
20260505003257 21 149 0.0 0.0 0.00 0.00 0.00 47 999.3
20260505002753 21 155 0.0 0.0 0.00 0.00 0.00 46 999.5
20260505002251 21 142 0.0 0.0 0.00 0.00 0.00 48 999.5
20260505001748 21 182 0.0 1.6 0.00 0.00 0.00 44 999.3
20260505001246 21 142 0.0 0.0 0.00 0.00 0.00 46 999.4
20260505000742 22 146 0.0 0.0 0.00 0.00 0.00 43 999.3
20260505000240 22 152 0.0 1.6 0.00 0.00 0.00 42 999.2
20260504235736 22 160 1.6 1.6 0.00 0.00 0.00 42 999.3
20260504235233 22 159 0.0 0.0 0.00 0.00 0.00 42 999.2
20260504234730 22 141 0.0 1.6 0.00 0.00 0.00 42 999.3
20260504234227 21 153 0.0 1.6 0.00 0.00 0.00 41 999.1
20260504233724 21 163 0.0 1.6 0.00 0.00 0.00 42 999.1
20260504233219 22 146 0.0 0.0 0.00 0.00 0.00 45 999.2
20260504232717 22 161 0.0 1.6 0.00 0.00 0.00 42 999.3
20260504232214 22 154 0.0 0.0 0.00 0.00 0.00 41 999.4
20260504231710 22 148 0.0 0.0 0.00 0.00 0.00 40 999.0
20260504231207 22 146 0.0 1.6 0.00 0.00 0.00 39 998.9
20260504230703 22 152 0.0 1.6 0.00 0.00 0.00 39 999.0
20260504230202 23 142 0.0 0.0 0.00 0.00 0.00 40 999.0
20260504225700 23 173 1.6 1.6 0.00 0.00 0.00 39 998.8
20260504225155 23 171 1.6 1.6 0.00 0.00 0.00 38 999.0
20260504224653 23 172 0.0 1.6 0.00 0.00 0.00 39 999.2
20260504224149 23 118 1.6 1.6 0.00 0.00 0.00 39 999.3
20260504223647 23 153 0.0 0.0 0.00 0.00 0.00 39 998.9
20260504223142 22 185 0.0 1.6 0.00 0.00 0.00 39 999.1
20260504222639 23 179 1.6 1.6 0.00 0.00 0.00 38 998.9
20260504222136 23 150 0.0 1.6 0.00 0.00 0.00 39 998.9
20260504221634 23 161 0.0 1.6 0.00 0.00 0.00 38 999.0
20260504221131 23 144 0.0 0.0 0.00 0.00 0.00 39 999.0
20260504220627 23 151 1.6 3.2 0.00 0.00 0.00 38 999.0
20260504220125 23 137 0.0 0.0 0.00 0.00 0.00 39 999.0
20260504215621 23 182 3.2 3.2 0.00 0.00 0.00 36 999.0
20260504215118 23 158 1.6 1.6 0.00 0.00 0.00 37 998.9
20260504214614 23 157 0.0 1.6 0.00 0.00 0.00 36 998.9
20260504214110 23 108 0.0 0.0 0.00 0.00 0.00 36 999.0
20260504213607 23 147 0.0 0.0 0.00 0.00 0.00 38 999.1
20260504213104 23 154 1.6 1.6 0.00 0.00 0.00 35 998.9
20260504212600 23 179 0.0 1.6 0.00 0.00 0.00 35 998.9
20260504212057 23 146 1.6 1.6 0.00 0.00 0.00 34 998.9
20260504211554 23 146 1.6 1.6 0.00 0.00 0.00 35 999.1
20260504211051 23 147 1.6 1.6 0.00 0.00 0.00 36 999.0
20260504210548 23 143 3.2 3.2 0.00 0.00 0.00 37 998.9
20260504210045 23 146 1.6 1.6 0.00 0.00 0.00 38 999.2
20260504205543 23 146 0.0 1.6 0.00 0.00 0.00 37 998.8
20260504205040 23 176 1.6 1.6 0.00 0.00 0.00 37 998.9
20260504204538 23 143 0.0 1.6 0.00 0.00 0.00 36 999.1
20260504204037 23 119 3.2 4.8 0.00 0.00 0.00 35 999.0
20260504203535 23 160 1.6 1.6 0.00 0.00 0.00 36 999.3
20260504203032 23 144 0.0 1.6 0.00 0.00 0.00 36 999.2
20260504202527 23 180 0.0 1.6 0.00 0.00 0.00 35 999.2
20260504202024 23 111 1.6 3.2 0.00 0.00 0.00 35 999.1
20260504201521 23 151 1.6 1.6 0.00 0.00 0.00 36 999.5
20260504201019 23 174 1.6 1.6 0.00 0.00 0.00 37 999.4
20260504200515 23 159 0.0 1.6 0.00 0.00 0.00 35 999.7
20260504200012 23 170 0.0 0.0 0.00 0.00 0.00 42 999.7
20260504195508 23 173 0.0 0.0 0.00 0.00 0.00 38 999.5
20260504195005 23 153 0.0 1.6 0.00 0.00 0.00 37 999.7
20260504194501 23 154 0.0 1.6 0.00 0.00 0.00 36 999.8
20260504193957 23 156 0.0 0.0 0.00 0.00 0.00 36 999.7
20260504193454 23 169 3.2 3.2 0.00 0.00 0.00 35 1000.0
20260504192953 23 160 1.6 1.6 0.00 0.00 0.00 38 1000.0
20260504192449 23 149 3.2 3.2 0.00 0.00 0.00 35 1000.1
20260504191949 23 164 1.6 1.6 0.00 0.00 0.00 38 1000.2
20260504191446 23 153 1.6 1.6 0.00 0.00 0.00 37 1000.6
20260504190941 23 261 1.6 3.2 0.00 0.00 0.00 38 1000.4
20260504190437 23 148 3.2 3.2 0.00 0.00 0.00 35 1000.7
20260504185934 23 164 1.6 1.6 0.00 0.00 0.00 38 1000.7
20260504185432 23 143 1.6 1.6 0.00 0.00 0.00 38 1000.6
20260504184927 23 142 0.0 0.0 0.00 0.00 0.00 38 1000.9
20260504184423 23 136 0.0 1.6 0.00 0.00 0.00 37 1001.0
20260504183919 23 141 0.0 1.6 0.00 0.00 0.00 36 1000.9
20260504183417 23 145 1.6 1.6 0.00 0.00 0.00 38 1001.2
20260504182915 23 147 0.0 0.0 0.00 0.00 0.00 37 1001.3
20260504182411 23 144 0.0 0.0 0.00 0.00 0.00 40 1001.4
20260504181908 23 192 1.6 1.6 0.00 0.00 0.00 38 1001.5
20260504181405 23 148 0.0 1.6 0.00 0.00 0.00 36 1001.1
20260504180904 22 142 0.0 1.6 0.00 0.00 0.00 38 1001.4
20260504180402 22 156 0.0 1.6 0.00 0.00 0.00 36 1001.3
20260504175900 22 129 1.6 1.6 0.00 0.00 0.00 43 1001.6
20260504175356 22 158 1.6 3.2 0.00 0.00 0.00 36 1001.5
20260504174855 22 195 1.6 3.2 0.00 0.00 0.00 37 1001.4
20260504174352 22 155 0.0 0.0 0.00 0.00 0.00 37 1001.7
20260504173849 22 163 1.6 3.2 0.00 0.00 0.00 38 1001.9
20260504173345 22 160 0.0 0.0 0.00 0.00 0.00 37 1001.7
20260504172843 22 160 0.0 0.0 0.00 0.00 0.00 37 1001.8
20260504172339 22 164 0.0 1.6 0.00 0.00 0.00 36 1001.9
20260504171835 22 189 1.6 3.2 0.00 0.00 0.00 36 1001.8
20260504171332 22 127 1.6 1.6 0.00 0.00 0.00 40 1002.1
20260504170830 22 150 1.6 1.6 0.00 0.00 0.00 36 1002.3
20260504170326 22 165 0.0 1.6 0.00 0.00 0.00 37 1002.2
20260504160245 21 148 1.6 1.6 0.00 0.00 0.00 37 1002.8
20260504150710 20 176 1.6 3.2 0.00 0.00 0.00 39 1003.5
20260504150207 21 144 0.0 1.6 0.00 0.00 0.00 40 1003.2